FW4606 Weather Reports


time (UTC)temp
C
wind
direction
speed
KPH
gust
KPH
rain 1hr
cm
rain 24hr
cm
rain mn
cm
humidity
%
barometer
mb
20260509042326 10 103 0.0 0.0 0.00 0.00 0.00 49 1002.9
20260509041821 10 103 0.0 0.0 0.00 0.00 0.00 49 1002.9
20260509041314 10 103 0.0 0.0 0.00 0.00 0.00 49 1002.9
20260509040809 10 103 0.0 0.0 0.00 0.00 0.00 47 1002.9
20260509040534 10 129 0.0 1.6 0.00 0.00 0.00 47 1003.1
20260509035756 10 129 0.0 1.6 0.00 0.00 0.00 46 1003.1
20260509035522 11 129 0.0 3.2 0.00 0.00 0.00 47 1003.1
20260509034745 11 113 0.0 3.2 0.00 0.00 0.00 46 1003.1
20260509034239 11 194 0.0 0.0 0.00 0.00 0.00 46 1003.1
20260509033733 11 194 0.0 1.6 0.00 0.00 0.00 45 1003.0
20260509033227 11 194 0.0 1.6 0.00 0.00 0.00 44 1003.0
20260509032721 12 110 0.0 1.6 0.00 0.00 0.00 44 1002.9
20260509032446 12 201 0.0 1.6 0.00 0.00 0.00 44 1002.9
20260509031708 12 149 0.0 3.2 0.00 0.00 0.00 42 1003.0
20260509031202 12 225 0.0 3.2 0.00 0.00 0.00 41 1002.8
20260509030656 13 197 0.0 8.0 0.00 0.00 0.00 40 1002.9
20260509030151 13 103 0.0 8.0 0.00 0.00 0.00 41 1002.8
20260509025916 13 165 0.0 4.8 0.00 0.00 0.00 40 1002.7
20260509025139 13 257 0.0 4.8 0.00 0.00 0.00 40 1002.7
20260509024633 13 100 0.0 6.4 0.00 0.00 0.00 40 1002.7
20260509024127 14 329 0.0 6.4 0.00 0.00 0.00 40 1002.7
20260509023620 14 180 0.0 4.8 0.00 0.00 0.00 39 1002.7
20260509023345 14 133 0.0 4.8 0.00 0.00 0.00 39 1002.6
20260509022608 15 100 0.0 4.8 0.00 0.00 0.00 38 1002.5
20260509022102 15 130 1.6 8.0 0.00 0.00 0.00 39 1002.4
20260509021556 15 115 1.6 9.7 0.00 0.00 0.00 37 1002.3
20260509021050 15 11 1.6 9.7 0.00 0.00 0.00 36 1002.2
20260509020542 16 74 1.6 12.9 0.00 0.00 0.00 37 1002.1
20260509020306 16 12 3.2 19.3 0.00 0.00 0.00 37 1002.0
20260509015534 16 172 1.6 19.3 0.00 0.00 0.00 37 1001.9
20260509015020 15 72 0.0 6.4 0.00 0.00 0.00 39 1001.8
20260509014514 16 120 0.0 9.7 0.00 0.00 0.00 39 1001.5
20260509014008 16 91 1.6 9.7 0.00 0.00 0.00 38 1001.5
20260509013502 16 139 1.6 8.0 0.00 0.00 0.00 37 1001.5
20260509012955 16 307 1.6 8.0 0.00 0.00 0.00 36 1001.3
20260509012450 16 131 0.0 8.0 0.00 0.00 0.00 35 1001.2
20260509011944 16 197 0.0 4.8 0.00 0.00 0.00 36 1001.2
20260509011708 16 194 0.0 3.2 0.00 0.00 0.00 35 1001.1
20260509011205 17 168 0.0 3.2 0.00 0.00 0.00 35 1001.0
20260509010656 17 191 0.0 3.2 0.00 0.00 0.00 34 1001.0
20260509005921 17 276 0.0 4.8 0.00 0.00 0.00 35 1000.9
20260509005417 18 101 1.6 6.4 0.00 0.00 0.00 32 1001.0
20260509004908 18 137 1.6 6.4 0.00 0.00 0.00 32 1000.9
20260509004634 18 186 1.6 9.7 0.00 0.00 0.00 31 1000.9
20260509003855 18 108 3.2 9.7 0.00 0.00 0.00 30 1000.9
20260509003350 19 156 1.6 6.4 0.00 0.00 0.00 31 1000.8
20260509002844 19 238 1.6 9.7 0.00 0.00 0.00 29 1000.9
20260509002338 20 165 1.6 9.7 0.00 0.00 0.00 30 1000.8
20260509001832 20 134 1.6 8.0 0.00 0.00 0.00 28 1000.9
20260509001326 20 124 3.2 8.0 0.00 0.00 0.00 28 1000.8
20260509000820 21 153 4.8 11.3 0.00 0.00 0.00 27 1000.8
20260509000314 21 179 4.8 11.3 0.00 0.00 0.00 27 1000.8
20260508235808 21 152 4.8 11.3 0.00 0.00 0.00 28 1000.7
20260508235306 20 190 4.8 11.3 0.00 0.00 0.00 29 1000.8
20260508234756 20 239 4.8 14.5 0.00 0.00 0.00 28 1000.8
20260508234520 21 156 3.2 17.7 0.00 0.00 0.00 28 1000.9
20260508233743 21 206 1.6 11.3 0.00 0.00 0.00 29 1000.8
20260508233237 21 135 1.6 4.8 0.00 0.00 0.00 29 1000.9
20260508232732 21 164 1.6 3.2 0.00 0.00 0.00 31 1001.0
20260508232229 21 233 1.6 11.3 0.00 0.00 0.00 31 1001.0
20260508231728 21 193 3.2 11.3 0.00 0.00 0.00 32 1001.1
20260508231227 21 166 4.8 11.3 0.00 0.00 0.00 30 1001.0
20260508230729 21 118 4.8 11.3 0.00 0.00 0.00 27 1001.1
20260508230234 22 162 4.8 12.9 0.00 0.00 0.00 27 1001.2
20260508230226 21 169 3.2 9.7 0.00 0.00 0.00 27 1001.1
20260508225727 21 167 4.8 12.9 0.00 0.00 0.00 27 1001.1
20260508224726 22 150 3.2 9.7 0.00 0.00 0.00 28 1001.0
20260508224225 22 211 3.2 9.7 0.00 0.00 0.00 28 1001.1
20260508223959 22 119 3.2 11.3 0.00 0.00 0.00 29 1001.1
20260508223224 22 149 3.2 11.3 0.00 0.00 0.00 30 1001.3
20260508222723 22 211 3.2 12.9 0.00 0.00 0.00 28 1001.3
20260508222224 21 158 3.2 12.9 0.00 0.00 0.00 28 1001.3
20260508221954 21 138 1.6 11.3 0.00 0.00 0.00 26 1001.3
20260508221227 21 174 3.2 11.3 0.00 0.00 0.00 29 1001.4
20260508220723 21 142 6.4 12.9 0.00 0.00 0.00 29 1001.4
20260508220222 22 180 4.8 12.9 0.00 0.00 0.00 25 1001.4
20260508215724 22 136 3.2 11.3 0.00 0.00 0.00 29 1001.5
20260508215218 22 112 4.8 12.9 0.00 0.00 0.00 28 1001.5
20260508214712 22 169 6.4 11.3 0.00 0.00 0.00 26 1001.6
20260508214205 22 195 6.4 11.3 0.00 0.00 0.00 29 1001.8
20260508213700 22 146 6.4 14.5 0.00 0.00 0.00 26 1001.8
20260508213153 22 164 8.0 16.1 0.00 0.00 0.00 28 1001.9
20260508212648 22 137 9.7 17.7 0.00 0.00 0.00 25 1002.0
20260508212142 22 102 8.0 17.7 0.00 0.00 0.00 26 1002.0
20260508211908 23 154 8.0 17.7 0.00 0.00 0.00 25 1002.0
20260508211130 22 252 9.7 17.7 0.00 0.00 0.00 27 1002.0
20260508210854 22 198 8.0 17.7 0.00 0.00 0.00 28 1002.0
20260508210118 22 174 8.0 17.7 0.00 0.00 0.00 26 1002.2
20260508205618 22 174 9.7 19.3 0.00 0.00 0.00 28 1002.2
20260508205118 22 200 9.7 19.3 0.00 0.00 0.00 25 1002.3
20260508204618 22 165 8.0 14.5 0.00 0.00 0.00 26 1002.4
20260508204118 21 141 6.4 16.1 0.00 0.00 0.00 27 1002.6
20260508203618 21 208 4.8 16.1 0.00 0.00 0.00 28 1002.6
20260508203118 21 208 6.4 14.5 0.00 0.00 0.00 28 1002.7
20260508202618 22 297 6.4 14.5 0.00 0.00 0.00 28 1002.8
20260508202119 22 173 6.4 19.3 0.00 0.00 0.00 29 1002.8
20260508201616 21 157 9.7 19.3 0.00 0.00 0.00 29 1003.0
20260508201124 22 217 6.4 22.5 0.00 0.00 0.00 25 1003.1
20260508201118 22 177 9.7 22.5 0.00 0.00 0.00 26 1003.1
20260508200118 22 23 4.8 16.1 0.00 0.00 0.00 28 1003.2
20260508195617 22 217 6.4 16.1 0.00 0.00 0.00 26 1003.2
20260508195350 22 325 9.7 17.7 0.00 0.00 0.00 27 1003.2
20260508194617 22 142 8.0 17.7 0.00 0.00 0.00 28 1003.3
20260508194118 21 170 6.4 17.7 0.00 0.00 0.00 30 1003.4
20260508193612 21 139 4.8 11.3 0.00 0.00 0.00 26 1003.5
20260508193106 21 198 4.8 11.3 0.00 0.00 0.00 27 1003.6
20260508192604 21 293 6.4 14.5 0.00 0.00 0.00 27 1003.6
20260508192050 21 198 6.4 14.5 0.00 0.00 0.00 30 1003.8
20260508191543 21 167 6.4 14.5 0.00 0.00 0.00 31 1003.8
20260508191038 20 219 4.8 12.9 0.00 0.00 0.00 29 1003.9
20260508190532 20 141 3.2 12.9 0.00 0.00 0.00 30 1004.0
20260508190033 21 214 6.4 14.5 0.00 0.00 0.00 28 1004.0
20260508185805 21 153 6.4 16.1 0.00 0.00 0.00 27 1004.1
20260508185032 21 139 3.2 16.1 0.00 0.00 0.00 28 1004.1
20260508184531 21 112 1.6 6.4 0.00 0.00 0.00 28 1004.3
20260508184032 21 314 3.2 8.0 0.00 0.00 0.00 27 1004.3
20260508183528 21 157 4.8 12.9 0.00 0.00 0.00 33 1004.4
20260508183032 21 266 3.2 12.9 0.00 0.00 0.00 29 1004.4
20260508182530 21 179 1.6 11.3 0.00 0.00 0.00 28 1004.5
20260508182027 20 152 1.6 8.0 0.00 0.00 0.00 29 1004.5
20260508181527 20 105 3.2 11.3 0.00 0.00 0.00 29 1004.6
20260508181029 21 91 3.2 14.5 0.00 0.00 0.00 29 1004.6
20260508180526 21 201 4.8 14.5 0.00 0.00 0.00 28 1004.7
20260508180257 21 148 4.8 12.9 0.00 0.00 0.00 29 1004.7
20260508175526 21 141 6.4 14.5 0.00 0.00 0.00 29 1004.8
20260508175026 20 204 6.4 14.5 0.00 0.00 0.00 29 1005.0
20260508174526 20 224 3.2 11.3 0.00 0.00 0.00 29 1005.0
20260508174019 20 160 3.2 12.9 0.00 0.00 0.00 30 1005.1
20260508173513 20 93 6.4 16.1 0.00 0.00 0.00 30 1005.2
20260508173008 20 152 4.8 16.1 0.00 0.00 0.00 30 1005.3
20260508172502 20 94 4.8 16.1 0.00 0.00 0.00 32 1005.4
20260508171956 20 156 6.4 14.5 0.00 0.00 0.00 29 1005.7
20260508171450 20 139 4.8 14.5 0.00 0.00 0.00 31 1005.7
20260508170944 19 158 6.4 12.9 0.00 0.00 0.00 34 1005.7
20260508170438 19 165 4.8 11.3 0.00 0.00 0.00 31 1005.8
20260508165938 19 191 4.8 11.3 0.00 0.00 0.00 32 1005.9
20260508165436 18 167 3.2 11.3 0.00 0.00 0.00 33 1005.9
20260508164938 18 231 1.6 4.8 0.00 0.00 0.00 33 1006.0
20260508164437 17 204 3.2 6.4 0.00 0.00 0.00 34 1006.1
20260508163937 17 215 3.2 8.0 0.00 0.00 0.00 37 1006.2
20260508163436 17 234 4.8 9.7 0.00 0.00 0.00 37 1006.3
20260508162938 17 212 4.8 9.7 0.00 0.00 0.00 36 1006.3
20260508162707 17 191 4.8 11.3 0.00 0.00 0.00 37 1006.3
20260508161934 17 156 4.8 11.3 0.00 0.00 0.00 37 1006.3
20260508161432 16 214 4.8 9.7 0.00 0.00 0.00 39 1006.3
20260508160934 16 212 4.8 12.9 0.00 0.00 0.00 41 1006.4
20260508160702 16 197 4.8 12.9 0.00 0.00 0.00 40 1006.4
20260508155930 15 141 4.8 11.3 0.00 0.00 0.00 39 1006.5
20260508155432 15 204 4.8 11.3 0.00 0.00 0.00 42 1006.5
20260508154931 14 190 3.2 11.3 0.00 0.00 0.00 42 1006.6
20260508154431 14 183 3.2 6.4 0.00 0.00 0.00 44 1006.7
20260508154200 14 224 3.2 8.0 0.00 0.00 0.00 44 1006.7
20260508153429 13 208 3.2 8.0 0.00 0.00 0.00 44 1006.8
20260508152930 13 205 3.2 8.0 0.00 0.00 0.00 44 1006.8
20260508152431 13 184 3.2 8.0 0.00 0.00 0.00 44 1006.9
20260508151931 13 233 3.2 8.0 0.00 0.00 0.00 45 1006.9
20260508151433 13 126 3.2 8.0 0.00 0.00 0.00 44 1006.9
20260508150929 13 176 3.2 8.0 0.00 0.00 0.00 48 1007.0
20260508150434 12 173 1.6 4.8 0.00 0.00 0.00 49 1007.2
20260508150427 12 151 1.6 6.4 0.00 0.00 0.00 46 1007.0
20260508145425 12 153 1.6 4.8 0.00 0.00 0.00 48 1007.1
20260508144926 12 207 1.6 4.8 0.00 0.00 0.00 47 1007.3
20260508144424 12 224 1.6 4.8 0.00 0.00 0.00 49 1007.4
20260508143925 12 189 1.6 6.4 0.00 0.00 0.00 48 1007.4
20260508143425 11 194 1.6 6.4 0.00 0.00 0.00 50 1007.4
20260508142924 11 211 0.0 6.4 0.00 0.00 0.00 49 1007.6
20260508142426 11 217 1.6 6.4 0.00 0.00 0.00 53 1007.5
20260508141926 11 211 1.6 6.4 0.00 0.00 0.00 53 1007.5
20260508141654 10 162 1.6 6.4 0.00 0.00 0.00 51 1007.6
20260508140923 10 221 0.0 4.8 0.00 0.00 0.00 52 1007.6
20260508140422 10 214 0.0 6.4 0.00 0.00 0.00 51 1007.7
20260508135923 10 159 0.0 6.4 0.00 0.00 0.00 50 1007.7
20260508135422 10 205 0.0 3.2 0.00 0.00 0.00 52 1007.7
20260508134923 9 194 0.0 3.2 0.00 0.00 0.00 55 1007.8
20260508134654 9 160 0.0 3.2 0.00 0.00 0.00 55 1007.9
20260508133924 8 232 0.0 3.2 0.00 0.00 0.00 57 1007.8
20260508133420 8 173 0.0 3.2 0.00 0.00 0.00 59 1007.9
20260508132920 8 197 0.0 3.2 0.00 0.00 0.00 63 1007.9
20260508132651 7 231 0.0 3.2 0.00 0.00 0.00 63 1008.0
20260508131920 6 162 0.0 0.0 0.00 0.00 0.00 69 1007.9
20260508131418 5 150 0.0 0.0 0.00 0.00 0.00 70 1008.0
20260508131149 5 176 0.0 0.0 0.00 0.00 0.00 72 1008.0
20260508130419 3 162 0.0 0.0 0.00 0.00 0.00 78 1008.0
20260508125919 2 163 0.0 0.0 0.00 0.00 0.00 88 1008.0
20260508125420 2 163 0.0 0.0 0.00 0.00 0.00 92 1008.1
20260508124916 1 163 0.0 0.0 0.00 0.00 0.00 92 1008.1
20260508124416 1 164 0.0 0.0 0.00 0.00 0.00 92 1008.1
20260508123914 1 163 0.0 0.0 0.00 0.00 0.00 92 1008.0
20260508123415 1 163 0.0 0.0 0.00 0.00 0.00 92 1008.0
20260508122915 0 163 0.0 0.0 0.00 0.00 0.00 93 1008.0
20260508122416 0 163 0.0 0.0 0.00 0.00 0.00 93 1008.0
20260508121916 0 163 0.0 0.0 0.00 0.00 0.00 93 1008.0
20260508121414 0 163 0.0 0.0 0.00 0.00 0.00 93 1008.0
20260508120915 0 163 0.0 0.0 0.00 0.00 0.00 92 1008.0
20260508120644 0 163 0.0 0.0 0.00 0.00 0.00 92 1008.0
20260508120141 0 163 0.0 0.0 0.00 0.00 0.00 92 1008.0
20260508115410 0 163 0.0 0.0 0.00 0.00 0.00 92 1008.0
20260508114911 0 163 0.0 0.0 0.00 0.00 0.00 92 1007.9
20260508114410 0 163 0.0 0.0 0.00 0.00 0.00 92 1007.9
20260508113912 0 163 0.0 0.0 0.00 0.00 0.00 92 1007.8
20260508113411 -1 141 0.0 0.0 0.00 0.00 0.00 92 1007.8
20260508112912 0 141 0.0 0.0 0.00 0.00 0.00 92 1007.8
20260508112412 0 141 0.0 0.0 0.00 0.00 0.00 92 1007.7
20260508111908 -1 141 0.0 0.0 0.00 0.00 0.00 93 1007.7
20260508111638 -1 141 0.0 0.0 0.00 0.00 0.00 93 1007.7
20260508110908 -1 166 0.0 0.0 0.00 0.00 0.00 92 1007.7
20260508110640 -1 166 0.0 0.0 0.00 0.00 0.00 92 1007.8
20260508105908 -1 166 0.0 0.0 0.00 0.00 0.00 92 1007.8
20260508105407 -1 166 0.0 0.0 0.00 0.00 0.00 92 1007.8
20260508105143 -1 166 0.0 0.0 0.00 0.00 0.00 91 1007.7
20260508104908 -1 166 0.0 0.0 0.00 0.00 0.00 92 1007.7
20260508103907 -1 166 0.0 0.0 0.00 0.00 0.00 91 1007.8
20260508103406 -1 166 0.0 0.0 0.00 0.00 0.00 91 1007.8
20260508102907 -1 166 0.0 0.0 0.00 0.00 0.00 91 1007.8
20260508102406 -1 166 0.0 0.0 0.00 0.00 0.00 90 1007.8
20260508101908 -1 166 0.0 0.0 0.00 0.00 0.00 90 1007.8
20260508101406 -1 166 0.0 0.0 0.00 0.00 0.00 90 1007.9
20260508100906 -1 150 0.0 0.0 0.00 0.00 0.00 90 1007.9
20260508100407 0 150 0.0 0.0 0.00 0.00 0.00 89 1007.9
20260508100140 0 150 0.0 0.0 0.00 0.00 0.00 88 1007.8
20260508095406 0 150 0.0 0.0 0.00 0.00 0.00 88 1007.8
20260508094907 0 150 0.0 0.0 0.00 0.00 0.00 89 1007.8
20260508094406 0 150 0.0 0.0 0.00 0.00 0.00 89 1007.8
20260508093907 0 150 0.0 0.0 0.00 0.00 0.00 88 1007.8
20260508093408 0 150 0.0 0.0 0.00 0.00 0.00 87 1007.8
20260508092907 0 150 0.0 0.0 0.00 0.00 0.00 87 1007.7
20260508092407 0 150 0.0 0.0 0.00 0.00 0.00 86 1007.7
20260508091909 0 150 0.0 0.0 0.00 0.00 0.00 87 1007.7
20260508091407 0 150 0.0 0.0 0.00 0.00 0.00 87 1007.7
20260508090905 0 150 0.0 0.0 0.00 0.00 0.00 87 1007.7
20260508090637 0 150 0.0 0.0 0.00 0.00 0.00 86 1007.8
20260508085906 0 150 0.0 0.0 0.00 0.00 0.00 84 1007.8
20260508085405 1 150 0.0 0.0 0.00 0.00 0.00 82 1007.8
20260508084903 1 150 0.0 0.0 0.00 0.00 0.00 82 1007.8
20260508084402 1 150 0.0 0.0 0.00 0.00 0.00 82 1007.7
20260508083902 2 150 0.0 0.0 0.00 0.00 0.00 81 1007.8
20260508083404 2 150 0.0 0.0 0.00 0.00 0.00 80 1007.7
20260508082900 2 150 0.0 0.0 0.00 0.00 0.00 79 1007.8
20260508082355 2 150 0.0 0.0 0.00 0.00 0.00 79 1007.8
20260508082125 2 150 0.0 0.0 0.00 0.00 0.00 80 1007.8
20260508081353 2 150 0.0 0.0 0.00 0.00 0.00 79 1007.9
20260508081125 2 151 0.0 0.0 0.00 0.00 0.00 78 1007.8
20260508080352 2 150 0.0 0.0 0.00 0.00 0.00 78 1007.9
20260508080123 2 150 0.0 0.0 0.00 0.00 0.00 79 1007.9
20260508075618 2 150 0.0 0.0 0.00 0.00 0.00 79 1007.9
20260508074847 2 150 0.0 0.0 0.00 0.00 0.00 77 1007.9
20260508074346 2 150 0.0 0.0 0.00 0.00 0.00 76 1007.9
20260508073848 2 150 0.0 0.0 0.00 0.00 0.00 76 1008.0
20260508073342 3 150 0.0 0.0 0.00 0.00 0.00 76 1008.0
20260508072836 3 150 0.0 0.0 0.00 0.00 0.00 76 1008.0
20260508072604 3 150 0.0 0.0 0.00 0.00 0.00 75 1008.0
20260508071830 3 150 0.0 0.0 0.00 0.00 0.00 76 1008.1
20260508071329 2 150 0.0 0.0 0.00 0.00 0.00 76 1008.1
20260508070826 3 150 0.0 0.0 0.00 0.00 0.00 77 1008.2
20260508070326 3 150 0.0 0.0 0.00 0.00 0.00 75 1008.2
20260508065825 3 151 0.0 0.0 0.00 0.00 0.00 75 1008.1
20260508065326 3 150 0.0 0.0 0.00 0.00 0.00 76 1008.2
20260508064823 3 150 0.0 0.0 0.00 0.00 0.00 77 1008.2
20260508064321 2 150 0.0 0.0 0.00 0.00 0.00 79 1008.2
20260508063818 2 150 0.0 0.0 0.00 0.00 0.00 82 1008.2
20260508063548 1 150 0.0 0.0 0.00 0.00 0.00 82 1008.3
20260508062814 1 150 0.0 0.0 0.00 0.00 0.00 82 1008.3
20260508062314 1 150 0.0 0.0 0.00 0.00 0.00 80 1008.3
20260508061814 1 150 0.0 0.0 0.00 0.00 0.00 80 1008.4
20260508061309 2 150 0.0 0.0 0.00 0.00 0.00 79 1008.4
20260508060807 2 150 0.0 0.0 0.00 0.00 0.00 78 1008.4
20260508060308 2 150 0.0 0.0 0.00 0.00 0.00 76 1008.4
20260508055806 2 150 0.0 0.0 0.00 0.00 0.00 75 1008.5
20260508055306 3 150 0.0 0.0 0.00 0.00 0.00 74 1008.5
20260508055039 3 150 0.0 0.0 0.00 0.00 0.00 74 1008.6
20260508054305 3 150 0.0 0.0 0.00 0.00 0.00 75 1008.6
20260508053758 2 150 0.0 0.0 0.00 0.00 0.00 76 1008.6
20260508053250 2 150 0.0 0.0 0.00 0.00 0.00 74 1008.7
20260508052745 3 150 0.0 0.0 0.00 0.00 0.00 73 1008.7
20260508052510 3 150 0.0 0.0 0.00 0.00 0.00 73 1008.7
20260508051732 3 150 0.0 0.0 0.00 0.00 0.00 71 1008.7
20260508051227 3 150 0.0 0.0 0.00 0.00 0.00 70 1008.7
20260508050721 4 150 0.0 0.0 0.00 0.00 0.00 70 1008.7
20260508050214 4 150 0.0 0.0 0.00 0.00 0.00 68 1008.7
20260508045708 4 150 0.0 0.0 0.00 0.00 0.00 69 1008.8
20260508045201 4 150 0.0 0.0 0.00 0.00 0.00 70 1008.8
20260508044656 4 150 0.0 0.0 0.00 0.00 0.00 69 1008.8
20260508044421 4 150 0.0 0.0 0.00 0.00 0.00 70 1008.8
20260508044313 3 150 0.0 0.0 0.00 0.00 0.00 71 1008.8
20260508043147 3 150 0.0 0.0 0.00 0.00 0.00 72 1008.9